Regional Weather Roundup
Issued by NWS

Home | Current Version | Previous Version | Graphics & Text | Print | Product List | Glossary On
Versions: 1 2 3 4 5 6 7 8 9 10 11 12 13 14 15 16 17 18 19 20 21 22 23 24 25 26 27 28 29 30 31 32 33 34 35 36 37 38 39 40 41 42 43 44 45 46 47 48 49 50
000
ASUS43 KDMX 011607
RWRIA

WEATHER ROUNDUP FOR IOWA
NATIONAL WEATHER SERVICE DES MOINES IA
1100 AM CDT SAT AUG 01 2015

NOTE: "FAIR" INDICATES FEW OR NO CLOUDS BELOW 12,000 FEET WITH NO
SIGNIFICANT WEATHER AND/OR OBSTRUCTIONS TO VISIBILITY.

* - THESE STATIONS ARE NOT NWS STATIONS...THUS NOT UNDER NWS
QUALITY CONTROL.  THEY ALSO DO NOT REPORT WEATHER SUCH
AS PRECIPITATION OR FOG.

IAZ001>003-012>014-020>022-031>034-043>046-011700-
   NORTHWEST IOWA

CITY           SKY/WX    TMP DP  RH WIND       PRES   REMARKS
CARROLL *      SUNNY     79  70  73 W10G17    30.04F HX  81
CHEROKEE *     PTSUNNY   77  68  73 W7        30.02F
DENISON *      SUNNY     75  68  78 VRB5G12   30.03F
LE MARS *      SUNNY     79  70  73 SW5       30.03S HX  81
ORANGE CITY *  SUNNY     75  66  73 SW6       30.03S
SHELDON *      SUNNY     75  70  83 SW7       30.01F
SIOUX CITY     MOSUNNY   78  64  61 W10       30.02F HX  80
SPENCER        PTSUNNY   78  69  73 SW13      30.02F HX  80
STORM LAKE *   SUNNY     77  68  73 SW10      30.05F
$$

IAZ055>058-069>071-079>083-090>094-011700-
   SOUTHWEST IOWA

CITY           SKY/WX    TMP DP  RH WIND       PRES   REMARKS
ATLANTIC *     SUNNY     72  70  94 SW5       30.06F
AUDUBON *      SUNNY     73  70  88 SW6       30.06F
CLARINDA *     MOSUNNY   77  72  83 W3        30.08S
COUNCIL BLFS * SUNNY     73  66  78 CALM      30.05R
CRESTON *      SUNNY     75  70  83 SW5       30.08S
HARLAN  *      SUNNY     70  70 100 S3        30.09F
LAMONI         CLOUDY    78  70  76 SW3       30.06S HX  80
RED OAK *      MOSUNNY   72  70  94 CALM      30.07F
SHENANDOAH *   SUNNY     73  70  88 CALM      30.06F
$$

IAZ047>049-059>061-072>074-084-011700-
   CENTRAL IOWA

CITY           SKY/WX    TMP DP  RH WIND       PRES   REMARKS
AMES           CLOUDY    79  70  74 SW10      30.03S HX  82
ANKENY *       SUNNY     81  68  65 VRB7      30.04R HX  83
CHARITON *     SUNNY     79  70  73 S8        30.05S HX  81
DES MOINES     CLOUDY    81  67  62 SW8       30.03S HX  83
GRINNELL*      PTSUNNY   77  68  73 SW9       30.05R
KNOXVILLE *    SUNNY     79  70  73 SW9       30.02F HX  81
MARSHALLTOWN   PTSUNNY   79  69  71 SW9       30.02S HX  81
PELLA *        PTSUNNY   81  72  74 SW5       30.04S HX  84
PERRY *          N/A     79  70  73 SW6       30.04S HX  81
$$

IAZ004>006-015-016-023>025-035-036-011700-
   NORTH CENTRAL IOWA

CITY           SKY/WX    TMP DP  RH WIND       PRES   REMARKS
ALGONA *       SUNNY     81  72  74 SW12      30.02S HX  84
CLARION *      SUNNY     81  70  69 W10       30.02S HX  84
ESTHERVILLE    MOSUNNY   78  69  73 W9        30.01F HX  80
FORT DODGE *   PTSUNNY   82  72  69 SW8       30.03F HX  87
MASON CITY     SUNNY     82  70  66 W12       30.03R HX  86
FOREST CITY *  SUNNY     79  66  65 W6        30.01S HX  81
IOWA FALLS *     N/A     81  70  69 SW9       30.03S HX  84
$$

IAZ007>011-017>019-026>030-037>042-050>054-066-011700-
   NORTHEAST IOWA

CITY           SKY/WX    TMP DP  RH WIND       PRES   REMARKS
CEDAR RAPIDS   MOSUNNY   78  69  73 SW12      30.01S HX  80
CHARLES CITY * MOSUNNY   79  72  78 NW13G20   30.02S HX  82
CLINTON *      SUNNY     81  63  54 SW9       30.04S HX  82
DECORAH *      SUNNY     77  64  65 W8G17     30.00R
DUBUQUE        MOSUNNY   79  60  52 SW13      30.01F HX  80
MONTICELLO *   SUNNY     81  63  54 SW6G13    30.01R HX  82
OELWEIN *      SUNNY     81  68  65 W12       30.02R HX  83
WATERLOO       SUNNY     82  69  64 W14       29.99S HX  85
$$

IAZ064-065-067-068-078-011700-
   EAST CENTRAL IOWA

CITY           SKY/WX    TMP DP  RH WIND       PRES   REMARKS
DAVENPORT      SUNNY     81  63  54 SW10      30.02F HX  82
IOWA CITY      MOSUNNY   81  64  56 SW13G18   30.03S HX  82
MT. PLEASANT * MOSUNNY   82  61  47 S8        30.03F HX  83
MUSCATINE *    SUNNY     82  64  54 S10       30.02S HX  84
QUAD CITIES    SUNNY     83  62  49 SW9       30.01F HX  84
$$

IAZ062-063-075>077-085>089-095>099-011700-
   SOUTHEAST IOWA

CITY           SKY/WX    TMP DP  RH WIND       PRES   REMARKS
BURLINGTON     MOSUNNY   80  65  59 S10       30.04S HX  82
FAIRFIELD *    SUNNY     81  63  54 S8G14     30.04S HX  82
FORT MADISON * SUNNY     79  63  57 S9        30.05F HX  80
KEOKUK *       SUNNY     81  61  50 S10       30.04F HX  81
OSKALOOSA *      N/A     79  66  65 S5        30.04S HX  81
CENTERVILLE *  SUNNY     81  72  74 S7        30.07S HX  84
OTTUMWA        PTSUNNY   79  68  69 S9        30.02F HX  81
WASHINGTON *   SUNNY     79  64  61 SW8       30.05R HX  81
$$

ABBREVIATIONS USED IN REMARKS
   TC - TEMPERATURES IN CELSIUS
  WCI - WIND CHILL INDEX
   HX - HEAT INDEX
  VSB - VISIBILITY
$$



USA.gov is the U.S. government's official web portal to all federal, state and local government web resources and services.